Wausau, WI

4:59 AM CDT on August 18, 2017 (GMT -0500)
Wausau Downtown

Weather History for KAUW - February, 2013

Change the Weather History Date:

Tuesday, February 19, 2013

  Actual Average Record
Temperature  
Mean Temperature 16 °F 20 °F  
Max Temperature 28 °F 29 °F 57 °F (2017)
Min Temperature 3 °F 11 °F -25 °F (1929)
Degree Days  
Heating Degree Days 49 45  
Month to date heating degree days 951 898  
Since 1 July heating degree days 5447 5748  
Cooling Degree Days 0 0  
Month to date cooling degree days 0 0  
Year to date cooling degree days 0 0  
Moisture  
Dew Point 3 °F    
Average Humidity 71    
Maximum Humidity 85    
Minimum Humidity 57    
Precipitation  
Precipitation 0.03 in 0.03 in 1.20 in (1898)
Month to date precipitation 1.09 0.57  
Year to date precipitation 2.77 1.59  
Snow  
Snow 0.70 in 0.30 in 12.00 in (1898)
Month to date snowfall 10.1 6.4  
Since 1 July snowfall 50.6 42.1  
Snow Depth 12.00 in    
Sea Level Pressure  
Sea Level Pressure 29.76 in    
Wind  
Wind Speed 16 mph (NW)    
Max Wind Speed 24 mph    
Max Gust Speed 31 mph    
Visibility 4 miles    
Events Snow    
T = Trace of Precipitation, MM = Missing Value Source: NWS Daily Summary

Daily Weather History Graph

Daily Weather History Graph

Search for Another Location

Airport or City:

Trip Planner

Search our weather history database for the weather conditions in past years. The results will help you decide how hot, cold, wet, or windy it might be!

Date:

Astronomy

Feb. 19, 2013 Rise Set
Actual Time 6:52 AM CST 5:32 PM CST
Civil Twilight 6:22 AM CST 6:02 PM CST
Nautical Twilight 5:48 AM CST 6:36 PM CST
Astronomical Twilight 5:14 AM CST 7:10 PM CST
Moon 11:56 AM CST (2/19) 2:32 AM CST (2/19)
Length of Visible Light 11h 39m
Length of Day
10h 40m
Waxing Gibbous, 67% of the Moon is Illuminated
Feb 19
Waxing Gibbous
Feb 25
Full
Mar 4
Last Quarter
Mar 11
New
Mar 19
First Quarter

Hourly Weather History & Observations

Time (CST) Temp. Windchill Dew Point Humidity Pressure Visibility Wind Dir Wind Speed Gust Speed Precip Events Conditions
12:54 AM 28.0 °F 17.0 °F 23.0 °F 81% 29.51 in 9.0 mi NW 13.8 mph 21.9 mph 0.00 in   Overcast
1:54 AM 24.1 °F 9.8 °F 19.9 °F 84% 29.52 in 5.0 mi WNW 19.6 mph - 0.00 in Snow Light Snow
2:54 AM 21.9 °F 8.7 °F 16.0 °F 78% 29.54 in 3.0 mi NW 15.0 mph 28.8 mph 0.00 in Snow Light Snow
3:20 AM 19.4 °F 5.5 °F 15.8 °F 86% 29.50 in 1.8 mi WNW 15.0 mph - 0.00 in Snow Light Snow
3:42 AM 19.4 °F 4.5 °F 14.0 °F 80% 29.50 in 2.5 mi NW 17.3 mph 26.5 mph 0.00 in Snow Light Snow
3:52 AM 19.4 °F 4.1 °F 14.0 °F 80% 29.51 in 3.0 mi NW 18.4 mph 26.5 mph 0.00 in Snow Light Snow
3:54 AM 19.0 °F 2.7 °F 14.0 °F 81% 29.57 in 3.0 mi NW 20.7 mph 27.6 mph 0.00 in Snow Light Snow
4:09 AM 19.4 °F 6.6 °F 12.2 °F 74% 29.52 in 3.0 mi WNW 12.7 mph 26.5 mph 0.00 in Snow Light Snow
4:24 AM 19.4 °F 7.9 °F 12.2 °F 74% 29.53 in 2.0 mi NW 10.4 mph 21.9 mph 0.00 in Snow Light Snow
4:35 AM 17.6 °F 2.7 °F 12.2 °F 79% 29.53 in 1.2 mi WNW 16.1 mph 20.7 mph 0.00 in Snow Light Snow
4:54 AM 17.1 °F 2.5 °F 12.0 °F 81% 29.61 in 1.5 mi WNW 15.0 mph 23.0 mph 0.00 in Snow Light Snow
5:36 AM 15.8 °F -1.5 °F 8.6 °F 73% 29.57 in 2.0 mi WNW 20.7 mph 26.5 mph 0.00 in Snow Light Snow
5:54 AM 15.1 °F -0.6 °F 9.0 °F 77% 29.65 in 3.0 mi WNW 16.1 mph 24.2 mph 0.00 in Snow Light Snow
6:34 AM 12.2 °F -6.3 °F 6.8 °F 79% 29.60 in 3.0 mi NW 20.7 mph 28.8 mph 0.00 in Snow Light Snow
6:54 AM 12.0 °F -6.0 °F 5.0 °F 73% 29.69 in 4.0 mi WNW 19.6 mph 26.5 mph 0.00 in Snow Light Snow
7:11 AM 12.2 °F -5.8 °F 5.0 °F 73% 29.63 in 2.0 mi WNW 19.6 mph 26.5 mph 0.00 in Snow Light Snow
7:31 AM 10.4 °F -8.2 °F 3.2 °F 73% 29.65 in 2.0 mi NW 19.6 mph 27.6 mph 0.00 in Snow Light Snow
7:39 AM 10.4 °F -6.6 °F 3.2 °F 73% 29.65 in 3.0 mi NW 16.1 mph 25.3 mph 0.00 in Snow Light Snow
7:54 AM 10.9 °F -5.9 °F 3.0 °F 70% 29.73 in 2.0 mi NW 16.1 mph 27.6 mph 0.00 in Snow Light Snow
8:26 AM 10.4 °F -7.7 °F -0.4 °F 62% 29.68 in 3.0 mi NW 18.4 mph 26.5 mph 0.00 in Snow Light Snow
8:50 AM 8.6 °F -9.5 °F 1.4 °F 73% 29.69 in 1.8 mi NW 17.3 mph 25.3 mph 0.00 in Snow Light Snow
8:54 AM 9.0 °F -7.9 °F 1.9 °F 73% 29.76 in 1.5 mi WNW 15.0 mph 25.3 mph 0.00 in Snow Light Snow
9:41 AM 6.8 °F -13.8 °F -0.4 °F 72% 29.71 in 0.8 mi NW 21.9 mph 31.1 mph 0.00 in Snow Light Snow
9:50 AM 6.8 °F -11.8 °F -0.4 °F 72% 29.72 in 1.0 mi NW 17.3 mph 28.8 mph 0.00 in Snow Light Snow
9:51 AM 7.0 °F -12.1 °F -0.0 °F 73% 29.79 in 1.0 mi NW 18.4 mph 28.8 mph 0.00 in Snow Light Snow
10:22 AM 6.8 °F -10.7 °F -0.4 °F 72% 29.73 in 0.8 mi NW 15.0 mph 29.9 mph 0.00 in Snow Light Snow
10:32 AM 6.8 °F -11.3 °F -0.4 °F 72% 29.74 in 1.0 mi NW 16.1 mph 26.5 mph 0.00 in Snow Light Snow
10:54 AM 6.1 °F -14.3 °F -2.0 °F 69% 29.83 in 1.8 mi WNW 20.7 mph 28.8 mph 0.00 in Snow Light Snow
11:15 AM 6.8 °F -12.4 °F -2.2 °F 67% 29.76 in 3.0 mi WNW 18.4 mph 23.0 mph 0.00 in Snow Light Snow
11:24 AM 6.8 °F -11.8 °F -2.2 °F 67% 29.76 in 1.8 mi WNW 17.3 mph 26.5 mph 0.00 in Snow Light Snow
12:11 PM 6.8 °F -12.4 °F -2.2 °F 67% 29.79 in 3.0 mi NW 18.4 mph 28.8 mph 0.00 in Snow Blowing Snow
12:54 PM 7.0 °F -12.1 °F -2.0 °F 67% 29.88 in 2.5 mi WNW 18.4 mph 27.6 mph 0.00 in Snow Light Snow
12:59 PM 8.6 °F -10.0 °F -2.2 °F 62% 29.81 in 3.0 mi WNW 18.4 mph 27.6 mph 0.00 in Snow Light Snow
1:36 PM 8.6 °F -10.5 °F -4.0 °F 57% 29.82 in 10.0 mi NW 19.6 mph 29.9 mph 0.00 in   Overcast
1:54 PM 9.0 °F -8.5 °F -4.0 °F 56% 29.91 in 10.0 mi NW 16.1 mph 28.8 mph 0.00 in   Overcast
2:54 PM 10.0 °F -5.9 °F -2.0 °F 58% 29.95 in 10.0 mi WNW 13.8 mph 24.2 mph N/A   Mostly Cloudy
3:54 PM 10.9 °F -7.0 °F -2.9 °F 54% 29.98 in 10.0 mi WNW 18.4 mph 25.3 mph N/A   Mostly Cloudy
4:54 PM 9.0 °F -9.5 °F -4.0 °F 56% 30.02 in 10.0 mi WNW 18.4 mph 26.5 mph N/A   Mostly Cloudy
6:54 PM 6.1 °F -10.9 °F -4.0 °F 63% 30.10 in 10.0 mi NW 13.8 mph 21.9 mph N/A   Partly Cloudy
7:54 PM 6.1 °F -10.2 °F -5.1 °F 60% 30.12 in 10.0 mi NW 12.7 mph - N/A   Clear
8:54 PM 5.0 °F -10.8 °F -5.1 °F 63% 30.14 in 10.0 mi WNW 11.5 mph 21.9 mph N/A   Clear
9:54 PM 3.9 °F -10.4 °F -5.1 °F 66% 30.17 in 10.0 mi WNW 9.2 mph - N/A   Clear
10:54 PM 3.0 °F -11.5 °F -5.1 °F 69% 30.19 in 10.0 mi NW 9.2 mph - N/A   Clear
11:54 PM 3.0 °F -9.3 °F -4.0 °F 73% 30.20 in 10.0 mi WNW 6.9 mph - N/A   Clear